{"data":{"norad_id":48993,"intl_designator":"2021-060AC","name":"ONEWEB-0275","alt_names":[],"object_type":"PAYLOAD","status":"ACTIVE","operator":null,"country":"UK","launch_date":"2021-07-01","launch_site_code":"VOSTO","launch_vehicle":null,"mission":null,"orbit_class":"UNKNOWN","rcs_meters":null,"size_class":null,"mass_kg":null,"dimensions":null,"purposes":["comms"],"wikipedia_slug":null,"has_3d_model":false,"image_url":null,"decayed_at":null,"tle_current":{"epoch":"2026-09-20T03:35:28.317120Z","epoch_age_seconds":52199,"freshness":"FRESH","line1":"1 48993U 21060AC  26263.14963330  .00000107  00000+0  24509-3 0  9990","line2":"2 48993  87.9158 209.9234 0002821  83.4739 276.6713 13.16595544252058","mean_motion":13.16595544,"eccentricity":0.0002821,"inclination_deg":87.9158,"raan_deg":209.9234,"arg_perigee_deg":83.4739,"mean_anomaly_deg":276.6713,"bstar":0.00024509,"rev_number":25205,"period_min":109.37299663229,"perigee_km":1195.6145718181,"apogee_km":1199.8888882396,"semimajor_km":7575.8887300288,"source":"CELESTRAK","updated_at":"2026-09-20T09:00:44.628265Z"}}}